Le nostre stazioni meteo in Italia

Pubblicità
Il mio iltempo24.it
Treviso/Istrana, Italia (16098): Temperatura & dewpoint: 15.04.2019 09:00:00 - 21.04.2019 09:00:00 (CEST)Treviso/Istrana, Italia (16098): velocità del vento: 15.04.2019 09:00:00 - 21.04.2019 09:00:00 (CEST)Treviso/Istrana, Italia (16098): direzione del vento: 15.04.2019 09:00:00 - 21.04.2019 09:00:00 (CEST)Treviso/Istrana, Italia (16098): reduced air pressure: 15.04.2019 09:00:00 - 21.04.2019 09:00:00 (CEST)Treviso/Istrana, Italia (16098): visibility: 15.04.2019 09:00:00 - 21.04.2019 09:00:00 (CEST)
Data & Tempo tt [°C] td [°C] ff [km/h] ff [kn] dd ppp [hPa] vv [km]
21.04.2019 09:00:00 - - - - - - -
21.04.2019 08:00:00 11,6 11,4 5 3 NO 1022,7 20
21.04.2019 07:00:00 12,0 9,9 2 1 S 1022,6 20
21.04.2019 06:00:00 12,6 10,5 4 2 NE 1022,8 20
21.04.2019 05:00:00 12,8 10,5 4 2 ENE 1023,1 20
21.04.2019 04:00:00 13,0 10,5 5 3 NNE 1023,5 20
21.04.2019 03:00:00 12,6 10,5 8 4 NE 1023,8 20
21.04.2019 02:00:00 13,6 10,8 5 3 NO 1024,2 20
21.04.2019 01:00:00 13,8 10,0 5 3 ONO 1024,4 20
21.04.2019 00:00:00 14,2 9,4 4 2 N 1024,5 20
20.04.2019 23:00:00 15,2 9,1 4 2 O 1024,7 20
20.04.2019 22:00:00 15,6 8,1 8 4 O 1024,5 20
20.04.2019 21:00:00 18,4 7,5 5 3 ONO 1024,1 20
20.04.2019 20:00:00 20,2 5,4 9 5 OSO 1024,0 15
20.04.2019 19:00:00 21,8 6,1 8 4 SO 1023,8 12
20.04.2019 18:00:00 22,8 7,8 11 6 SSO 1023,7 20
20.04.2019 17:00:00 22,4 7,8 9 5 SSE 1024,8 20
20.04.2019 16:00:00 23,4 9,1 9 5 S 1026,4 20
20.04.2019 15:00:00 23,2 9,6 11 6 S 1026,2 20
20.04.2019 14:00:00 23,2 9,2 9 5 S 1026,8 20
20.04.2019 13:00:00 22,6 9,1 11 6 ESE 1026,9 20
20.04.2019 12:00:00 22,6 10,4 8 4 E 1027,2 20
20.04.2019 11:00:00 21,4 12,3 4 2 SE 1027,4 20
20.04.2019 10:00:00 20,2 12,2 0 0 N 1027,6 20
20.04.2019 09:00:00 17,0 11,5 5 3 N 1027,6 20
20.04.2019 08:00:00 12,4 10,5 8 4 N 1027,4 15
20.04.2019 07:00:00 11,0 9,1 8 4 N 1027,6 15
20.04.2019 06:00:00 10,0 8,4 2 1 NNE 1027,7 10
20.04.2019 05:00:00 10,0 8,4 11 6 ENE 1027,9 10
20.04.2019 04:00:00 10,0 7,1 9 5 NE 1027,8 10
20.04.2019 03:00:00 12,0 8,5 8 4 NNE 1027,9 10
20.04.2019 02:00:00 12,0 7,7 4 2 N 1028,3 10
20.04.2019 01:00:00 12,0 8,7 0 0 N 1028,3 10
20.04.2019 00:00:00 13,0 6,6 2 1 N 1028,2 10
19.04.2019 23:00:00 13,0 5,4 5 3 NNO 1027,9 10
19.04.2019 22:00:00 16,0 5,6 8 4 NNO 1027,9 15
19.04.2019 21:00:00 17,0 5,0 11 6 SO 1028,0 15
19.04.2019 20:00:00 19,6 6,7 9 5 SO 1027,5 20
19.04.2019 19:00:00 20,6 8,3 8 4 S 1027,7 20
19.04.2019 18:00:00 20,6 9,5 9 5 S 1027,9 20
19.04.2019 17:00:00 20,8 9,4 8 4 SSO 1028,1 25
19.04.2019 16:00:00 21,2 9,1 11 6 SSO 1028,3 25
19.04.2019 15:00:00 21,0 9,3 11 6 E 1028,9 30
19.04.2019 14:00:00 20,4 9,0 9 5 E 1029,4 30
19.04.2019 13:00:00 19,8 9,4 11 6 ENE 1029,6 30
19.04.2019 12:00:00 19,6 9,5 11 6 E 1030,0 10
19.04.2019 11:00:00 18,8 9,6 15 8 E 1030,2 35
19.04.2019 10:00:00 18,2 9,8 13 7 ENE 1030,0 35
19.04.2019 09:00:00 16,8 10,9 13 7 NE 1029,7 35
19.04.2019 08:00:00 14,2 10,0 9 5 NE 1029,4 35
19.04.2019 07:00:00 11,2 8,4 8 4 NNE 1029,0 25
19.04.2019 06:00:00 10,8 8,6 9 5 NE 1028,7 15
19.04.2019 05:00:00 11,0 9,3 8 4 NNE 1028,6 10
19.04.2019 04:00:00 12,0 9,9 11 6 NE 1028,4 12
19.04.2019 03:00:00 13,0 10,4 9 5 NE 1028,1 10
19.04.2019 02:00:00 17,2 14,5 9 5 NE 1028,1 10
19.04.2019 01:00:00 13,8 10,8 8 4 ENE 1028,2 10
19.04.2019 00:00:00 15,0 10,6 0 0 N 1027,7 10
18.04.2019 23:00:00 15,2 10,4 5 3 N 1027,1 10
18.04.2019 22:00:00 15,2 8,2 0 0 N 1026,5 10
18.04.2019 21:00:00 15,6 7,6 5 3 S 1025,9 10
18.04.2019 20:00:00 18,0 7,7 9 5 S 1024,6 10
18.04.2019 19:00:00 19,0 8,4 11 6 S 1024,6 10
18.04.2019 18:00:00 21,0 8,6 8 4 E 1024,8 10
18.04.2019 17:00:00 21,0 8,6 5 3 S 1024,9 10
18.04.2019 16:00:00 21,4 9,6 8 4 ENE 1024,9 10
18.04.2019 15:00:00 20,6 8,3 8 4 ESE 1025,1 10
18.04.2019 14:00:00 20,0 7,7 5 3 E 1025,2 10
18.04.2019 13:00:00 20,0 8,4 11 6 SE 1025,2 10
18.04.2019 12:00:00 18,4 7,5 11 6 E 1025,4 15
18.04.2019 11:00:00 18,0 8,0 13 7 E 1025,1 10
18.04.2019 10:00:00 17,0 8,4 13 7 E 1024,8 10
18.04.2019 09:00:00 15,0 8,5 11 6 ENE 1024,8 10
18.04.2019 08:00:00 12,0 8,1 0 0 N 1024,7 10
18.04.2019 07:00:00 10,8 7,1 5 3 N 1024,2 10
18.04.2019 06:00:00 11,0 6,5 9 5 NE 1024,0 10
18.04.2019 05:00:00 12,0 9,7 11 6 NE 1023,7 10
18.04.2019 04:00:00 12,0 9,2 13 7 NE 1023,4 10
18.04.2019 03:00:00 11,6 9,4 15 8 ENE 1023,3 10
18.04.2019 02:00:00 11,0 10,9 11 6 ENE 1023,1 10
18.04.2019 01:00:00 11,4 11,1 11 6 ENE 1022,7 10
18.04.2019 00:00:00 11,4 10,5 8 4 ENE 1022,3 10
17.04.2019 23:00:00 11,8 9,9 0 0 N 1021,2 10
17.04.2019 22:00:00 13,0 9,6 0 0 N 1020,1 12
17.04.2019 21:00:00 15,2 8,4 0 0 N 1019,8 12
17.04.2019 20:00:00 18,0 8,3 5 3 SO 1019,3 12
17.04.2019 19:00:00 20,2 8,2 9 5 SSO 1019,0 15
17.04.2019 18:00:00 21,8 8,7 11 6 SO 1018,9 12
17.04.2019 17:00:00 21,8 9,0 9 5 SO 1019,0 12
17.04.2019 16:00:00 22,2 8,7 9 5 SSO 1019,2 15
17.04.2019 15:00:00 22,4 9,2 11 6 SSO 1019,4 15
17.04.2019 14:00:00 22,2 11,0 5 3 S 1019,7 12
17.04.2019 13:00:00 21,0 11,1 5 3 SSO 1020,1 12
17.04.2019 12:00:00 20,0 10,7 0 0 N 1020,4 12
17.04.2019 11:00:00 18,2 10,1 5 3 NE 1020,3 12
17.04.2019 10:00:00 15,8 9,9 8 4 E 1020,4 12
17.04.2019 09:00:00 12,8 10,7 8 4 ENE 1020,3 10
17.04.2019 08:00:00 11,0 11,0 8 4 NNE 1020,2 10
17.04.2019 07:00:00 8,4 7,8 5 3 N 1020,0 8
17.04.2019 06:00:00 8,8 8,7 5 3 NNE 1019,6 10
17.04.2019 05:00:00 9,0 8,9 4 2 N 1019,6 10
17.04.2019 04:00:00 9,4 9,4 8 4 ENE 1019,6 8
17.04.2019 03:00:00 9,0 9,0 8 4 NE 1019,6 8
17.04.2019 02:00:00 9,0 9,0 8 4 NE 1019,6 8
17.04.2019 01:00:00 9,8 9,8 0 0 N 1019,7 8
17.04.2019 00:00:00 10,6 10,0 4 2 ESE 1019,6 8
16.04.2019 23:00:00 10,4 9,0 5 3 NNE 1019,5 8
16.04.2019 22:00:00 12,4 10,3 4 2 ESE 1019,6 8
16.04.2019 21:00:00 14,0 9,8 4 2 S 1019,2 8
16.04.2019 20:00:00 15,2 10,4 9 5 S 1018,6 8
16.04.2019 19:00:00 17,4 11,0 15 8 S 1018,2 7
16.04.2019 18:00:00 18,0 10,6 13 7 SSE 1018,3 8
16.04.2019 17:00:00 19,0 9,5 9 5 SO 1018,2 10
16.04.2019 16:00:00 20,0 8,7 5 3 O 1018,5 10
16.04.2019 15:00:00 19,0 7,8 8 4 SSE 1018,7 10
16.04.2019 14:00:00 19,0 6,5 5 3 S 1019,1 10
16.04.2019 13:00:00 19,0 7,7 0 0 N 1019,4 10
16.04.2019 12:00:00 18,2 7,0 8 4 SSO 1019,8 10
16.04.2019 11:00:00 17,4 6,3 8 4 ESE 1020,2 10
16.04.2019 10:00:00 16,0 6,7 13 7 E 1020,1 10
16.04.2019 09:00:00 13,4 8,7 8 4 ENE 1020,0 10
16.04.2019 08:00:00 10,2 6,5 9 5 NE 1019,8 18
16.04.2019 07:00:00 9,0 6,3 11 6 NE 1019,6 18
16.04.2019 06:00:00 9,6 6,5 11 6 NE 1019,4 20
16.04.2019 05:00:00 10,6 7,7 11 6 NE 1019,6 20
16.04.2019 04:00:00 10,8 8,0 13 7 NE 1019,7 20
16.04.2019 03:00:00 11,4 8,6 13 7 ENE 1019,6 20
16.04.2019 02:00:00 11,8 9,5 13 7 NE 1019,7 18
16.04.2019 01:00:00 11,0 9,9 8 4 NNE 1019,9 18
16.04.2019 00:00:00 11,8 10,4 8 4 N 1019,6 18
15.04.2019 23:00:00 10,6 9,5 4 2 N 1019,4 18
15.04.2019 22:00:00 12,4 9,2 4 2 ONO 1019,4 20
15.04.2019 21:00:00 14,6 9,8 5 3 OSO 1019,1 20
15.04.2019 20:00:00 16,2 9,9 5 3 OSO 1018,7 20
15.04.2019 19:00:00 18,0 8,6 5 3 SO 1018,6 15
15.04.2019 18:00:00 17,8 8,9 5 3 S 1018,6 20
15.04.2019 17:00:00 17,0 8,4 13 7 NE 1018,7 20
15.04.2019 16:00:00 19,0 7,1 8 4 NNE 1019,0 25
15.04.2019 15:00:00 18,6 6,1 16 9 E 1019,3 25
15.04.2019 14:00:00 18,4 8,1 5 3 SE 1019,8 30
15.04.2019 13:00:00 18,4 9,7 4 2 SSO 1020,0 30
15.04.2019 12:00:00 16,8 8,2 5 3 NE 1020,1 30
15.04.2019 11:00:00 16,0 8,2 9 5 NNE 1019,8 30
15.04.2019 10:00:00 15,0 7,5 5 3 ENE 1019,9 30
15.04.2019 09:00:00 14,0 8,8 0 0 N 1019,7 30

tt = Temperatura
td = dewpoint
ff = velocità del vento
dd = direzione del vento
ppp = reduced air pressure
vv = visibility

Stazioni seguenti

WeatherPro
AMSI
MeteoEarth